Retour au catalogue

DELTA 1 DEB

ActifSSO
NORAD 42560·DEBRIS·🇺🇸 United States

Lancé Jul 23, 1972 depuis Vandenberg Space Force Base

Loading…

Prochains Passages (prochaines 24 heures)

TLE

FraisSource: Space-Track

Époque: Sep 14, 2026, 03:02 UTC

1 42560U 72058JT  26257.12692521  .00000256  00000-0  75014-4 0  9993
2 42560  97.8933 214.6619 0093820 273.4224 148.0278 14.49115542676604

Suivez DELTA 1 DEB en temps réel avec AllMySat

Download on the App Store